Location: Antioch Baptist Church
(32.6696°N, 85.7327°W)
Time: 11:41:25
(UTC+00:00)

NOSS 3-2 (C) - Pass Details

Date: 14 July 2020
Orbit: 801 x 1412 km, 63.4° (Epoch: 05 August)

Event Time Altitude Azimuth Distance (km) Brightness Sun altitude
Exits shadow 09:19:06 23° 207° (SSW) 1,704 4.3 -16.1°
Maximum altitude 09:22:42 87° 119° (ESE) 865 3.2 -15.5°
Drops below altitude 10° 09:28:48 10° 31° (NNE) 2,659 6.9 -14.5°
Sets 09:31:31 0° 31° (NNE) 3,695 7.9 -14.1°
